St. Charles, IL

5:07 AM CDT on March 30, 2017 (GMT -0500)
Saint Charles County Smartt

Weather History for KSET - February, 2014

Change the Weather History Date:

Saturday, February 8, 2014

  Actual Average (KSTL) Record (KSTL)
Temperature  
Mean Temperature 20 °F -  
Max Temperature 26 °F 37 °F 70 °F (1990)
Min Temperature 15 °F 20 °F -12 °F (1895)
Degree Days  
Heating Degree Days 44    
Moisture  
Dew Point 15 °F    
Average Humidity 79    
Maximum Humidity 88    
Minimum Humidity 69    
Precipitation  
Precipitation 0.00 in - - ()
Sea Level Pressure  
Sea Level Pressure 30.23 in    
Wind  
Wind Speed 7 mph (ESE)    
Max Wind Speed 9 mph    
Max Gust Speed -    
Visibility 8 miles    
Events Snow    
Averages and records for this station are not official NWS values.
T = Trace of Precipitation, MM = Missing Value Source: NWS Daily Summary

Daily Weather History Graph

Daily Weather History Graph

Search for Another Location

Airport or City:

Trip Planner

Search our weather history database for the weather conditions in past years. The results will help you decide how hot, cold, wet, or windy it might be!

Date:

Astronomy

Feb. 08, 2014 Rise Set
Actual Time 7:01 AM CST 5:31 PM CST
Civil Twilight 6:33 AM CST 5:58 PM CST
Nautical Twilight 6:01 AM CST 6:30 PM CST
Astronomical Twilight 5:30 AM CST 7:01 PM CST
Moon 12:26 PM CST (2/8) 2:12 AM CST (2/8)
Length of Visible Light 11h 25m
Length of Day
10h 30m
Waxing Gibbous, 69% of the Moon is Illuminated
Feb 8
Waxing Gibbous
Feb 14
Full
Feb 22
Last Quarter
Mar 1
New
Mar 8
First Quarter

Hourly Weather History & Observations

Time (CST) Temp. Windchill Dew Point Humidity Pressure Visibility Wind Dir Wind Speed Gust Speed Precip Events Conditions
12:54 AM 16.0 °F 6.3 °F 8.1 °F 71% 30.34 in 10.0 mi East 6.9 mph - N/A   Overcast
1:54 AM 16.0 °F 4.4 °F 8.1 °F 71% 30.31 in 9.0 mi East 9.2 mph - N/A   Overcast
2:35 AM 16.0 °F 4.4 °F 8.1 °F 71% 30.29 in 2.5 mi East 9.2 mph - 0.00 in Snow Light Snow
2:46 AM 16.0 °F 5.3 °F 9.0 °F 74% 30.29 in 1.5 mi ESE 8.1 mph - 0.00 in Snow Light Snow
2:54 AM 15.1 °F 3.3 °F 10.0 °F 80% 30.31 in 1.2 mi ESE 9.2 mph - 0.00 in Snow Light Snow
3:54 AM 15.1 °F 4.2 °F 12.0 °F 88% 30.29 in 2.0 mi ESE 8.1 mph - 0.00 in Snow Light Snow
4:04 AM 15.1 °F 3.3 °F 12.0 °F 88% 30.27 in 1.8 mi ESE 9.2 mph - 0.00 in Snow Light Snow
4:14 AM 15.1 °F 4.2 °F 12.0 °F 88% 30.27 in 2.5 mi ESE 8.1 mph - 0.00 in Snow Light Snow
4:30 AM 15.1 °F 3.3 °F 12.0 °F 88% 30.26 in 4.0 mi ESE 9.2 mph - 0.00 in Snow Light Snow
4:54 AM 15.1 °F 5.2 °F 12.0 °F 88% 30.28 in 4.0 mi East 6.9 mph - 0.00 in Snow Light Snow
5:54 AM 16.0 °F 7.4 °F 12.0 °F 84% 30.27 in 10.0 mi ESE 5.8 mph - 0.00 in   Overcast
6:54 AM 16.0 °F 7.4 °F 12.9 °F 88% 30.28 in 10.0 mi ESE 5.8 mph - N/A   Overcast
7:54 AM 17.1 °F 8.7 °F 12.9 °F 84% 30.27 in 9.0 mi ESE 5.8 mph - N/A   Overcast
8:11 AM 17.1 °F 10.0 °F 12.9 °F 84% 30.25 in 9.0 mi ESE 4.6 mph - N/A   Overcast
8:54 AM 18.0 °F 9.8 °F 14.0 °F 84% 30.28 in 9.0 mi SE 5.8 mph - N/A   Overcast
9:54 AM 19.0 °F 10.0 °F 15.1 °F 85% 30.27 in 9.0 mi SE 6.9 mph - N/A   Overcast
10:10 AM 19.9 °F 11.1 °F 15.1 °F 81% 30.24 in 9.0 mi ESE 6.9 mph - N/A   Overcast
10:54 AM 21.0 °F 12.4 °F 16.0 °F 81% 30.24 in 10.0 mi SSE 6.9 mph - N/A   Overcast
11:54 AM 23.0 °F 13.9 °F 16.0 °F 74% 30.21 in 10.0 mi SSE 8.1 mph - N/A   Overcast
12:54 PM 25.0 °F 16.3 °F 17.1 °F 72% 30.18 in 10.0 mi South 8.1 mph - N/A   Overcast
1:54 PM 25.0 °F 20.7 °F 17.1 °F 72% 30.17 in 10.0 mi SW 3.5 mph - N/A   Overcast
2:54 PM 26.1 °F 21.9 °F 17.1 °F 69% 30.16 in 10.0 mi SSW 3.5 mph - N/A   Overcast
3:54 PM 26.1 °F - 18.0 °F 71% 30.16 in 10.0 mi Calm Calm - N/A   Overcast
4:02 PM 26.1 °F - 18.0 °F 71% 30.15 in 10.0 mi Calm Calm - N/A   Overcast
4:54 PM 26.1 °F 20.5 °F 18.0 °F 71% 30.15 in 10.0 mi ENE 4.6 mph - N/A   Overcast
5:54 PM 26.1 °F 20.5 °F 19.0 °F 75% 30.16 in 10.0 mi ENE 4.6 mph - N/A   Overcast
6:54 PM 26.1 °F - 19.0 °F 75% 30.18 in 10.0 mi Calm Calm - N/A   Overcast
7:54 PM 26.1 °F 20.5 °F 19.0 °F 75% 30.17 in 10.0 mi ENE 4.6 mph - N/A   Overcast
8:54 PM 25.0 °F - 19.9 °F 81% 30.17 in 10.0 mi Calm Calm - N/A   Overcast
9:54 PM 26.1 °F 21.9 °F 19.9 °F 78% 30.17 in 10.0 mi East 3.5 mph - N/A   Overcast
10:54 PM 26.1 °F 20.5 °F 19.9 °F 78% 30.18 in 10.0 mi North 4.6 mph - N/A   Overcast
11:54 PM 25.0 °F 20.7 °F 19.9 °F 81% 30.18 in 10.0 mi North 3.5 mph - N/A   Overcast